TimeCDT,TemperatureF,Dew PointF,Humidity,Sea Level PressureIn,VisibilityMPH,Wind Direction,Wind SpeedMPH,Gust SpeedMPH,PrecipitationIn,Events,Conditions,WindDirDegrees,DateUTC
12:13 AM,80.1,74.3,82,29.98,10.0,South,4.6,-,N/A,,Overcast,180,2013-08-26 05:13:00
12:33 AM,79.7,74.3,83,29.98,10.0,South,3.5,-,N/A,,Overcast,180,2013-08-26 05:33:00
12:53 AM,79.3,74.3,84,29.97,10.0,South,4.6,-,N/A,,Overcast,190,2013-08-26 05:53:00
1:13 AM,79.2,74.3,85,29.98,10.0,South,4.6,-,N/A,,Overcast,190,2013-08-26 06:13:00
1:33 AM,79.0,73.9,84,29.97,10.0,SSW,5.8,-,N/A,,Mostly Cloudy,200,2013-08-26 06:33:00
1:52 AM,78.4,73.9,86,29.97,10.0,South,5.8,-,N/A,,Scattered Clouds,190,2013-08-26 06:52:00
2:13 AM,78.1,73.8,86,29.96,10.0,South,4.6,-,N/A,,Clear,180,2013-08-26 07:13:00
2:33 AM,77.7,73.6,87,29.96,10.0,Calm,Calm,-,N/A,,Clear,0,2013-08-26 07:33:00
2:53 AM,77.4,73.6,88,29.96,7.0,South,3.5,-,N/A,,Clear,190,2013-08-26 07:53:00
3:13 AM,77.2,73.6,89,29.96,5.0,South,5.8,-,N/A,,Clear,190,2013-08-26 08:13:00
3:33 AM,77.2,73.4,88,29.96,7.0,South,6.9,-,N/A,,Clear,190,2013-08-26 08:33:00
3:53 AM,77.2,73.0,87,29.96,10.0,South,4.6,-,N/A,,Clear,190,2013-08-26 08:53:00
4:13 AM,76.6,72.9,88,29.96,7.0,SSW,3.5,-,N/A,,Clear,210,2013-08-26 09:13:00
4:32 AM,76.3,72.5,88,29.96,10.0,SSW,4.6,-,N/A,,Clear,200,2013-08-26 09:32:00
4:53 AM,76.1,72.5,89,29.96,7.0,SSW,3.5,-,N/A,,Clear,200,2013-08-26 09:53:00
5:13 AM,75.6,72.1,89,29.96,7.0,Calm,Calm,-,N/A,,Clear,0,2013-08-26 10:13:00
5:32 AM,75.4,72.0,89,29.96,7.0,South,4.6,-,N/A,,Clear,190,2013-08-26 10:32:00
5:53 AM,75.0,71.6,89,29.96,7.0,Calm,Calm,-,N/A,,Clear,0,2013-08-26 10:53:00
6:12 AM,74.7,71.6,90,29.96,7.0,Calm,Calm,-,N/A,,Clear,0,2013-08-26 11:12:00
6:33 AM,74.3,71.2,90,29.97,7.0,Calm,Calm,-,N/A,,Clear,0,2013-08-26 11:33:00
6:52 AM,74.3,71.2,90,29.97,5.0,Calm,Calm,-,N/A,,Clear,0,2013-08-26 11:52:00
7:13 AM,74.5,71.2,90,29.97,4.0,South,3.5,-,N/A,,Clear,180,2013-08-26 12:13:00
7:33 AM,75.2,71.2,87,29.97,5.0,South,6.9,-,N/A,,Clear,190,2013-08-26 12:33:00
7:52 AM,76.1,71.6,86,29.97,7.0,SSW,5.8,-,N/A,,Clear,200,2013-08-26 12:52:00
8:13 AM,77.5,71.4,81,29.97,7.0,SSW,4.6,-,N/A,,Clear,200,2013-08-26 13:13:00
8:33 AM,79.2,71.6,78,29.98,7.0,SSW,4.6,-,N/A,,Clear,210,2013-08-26 13:33:00
8:53 AM,80.6,71.6,74,29.97,7.0,SSW,4.6,-,N/A,,Clear,200,2013-08-26 13:53:00
9:13 AM,81.7,71.2,70,29.97,10.0,South,4.6,-,N/A,,Clear,190,2013-08-26 14:13:00
9:33 AM,82.6,71.1,68,29.97,10.0,South,4.6,-,N/A,,Clear,190,2013-08-26 14:33:00
9:53 AM,84.0,70.7,64,29.97,10.0,South,4.6,-,N/A,,Clear,190,2013-08-26 14:53:00
10:13 AM,85.1,70.5,61,29.96,10.0,South,6.9,-,N/A,,Clear,180,2013-08-26 15:13:00
10:32 AM,85.3,70.3,61,29.96,10.0,SSW,4.6,-,N/A,,Clear,200,2013-08-26 15:32:00
10:53 AM,85.6,70.7,61,29.96,10.0,South,6.9,-,N/A,,Clear,170,2013-08-26 15:53:00
11:12 AM,86.9,70.2,57,29.96,10.0,South,5.8,-,N/A,,Clear,170,2013-08-26 16:12:00
11:33 AM,88.0,69.4,54,29.96,10.0,South,5.8,-,N/A,,Clear,190,2013-08-26 16:33:00
11:53 AM,88.2,70.7,56,29.96,10.0,SE,8.1,-,N/A,,Clear,140,2013-08-26 16:53:00
12:12 PM,88.3,69.8,54,29.95,10.0,South,6.9,-,N/A,,Clear,170,2013-08-26 17:12:00
12:33 PM,88.7,70.0,54,29.95,10.0,SSE,8.1,-,N/A,,Clear,150,2013-08-26 17:33:00
12:52 PM,89.6,70.7,54,29.94,10.0,SE,9.2,-,N/A,,Clear,140,2013-08-26 17:52:00
1:13 PM,88.0,70.7,56,29.94,10.0,SSE,8.1,-,N/A,,Clear,150,2013-08-26 18:13:00
1:33 PM,89.4,71.6,56,29.92,10.0,SE,9.2,-,N/A,,Clear,140,2013-08-26 18:33:00
1:52 PM,89.1,70.9,55,29.92,10.0,SE,11.5,17.3,N/A,,Clear,140,2013-08-26 18:52:00
2:13 PM,90.1,70.7,53,29.92,10.0,SSE,12.7,-,N/A,,Clear,160,2013-08-26 19:13:00
2:32 PM,90.5,71.2,53,29.91,10.0,SSE,9.2,-,N/A,,Clear,150,2013-08-26 19:32:00
2:53 PM,90.7,71.6,53,29.91,10.0,South,11.5,17.3,N/A,,Clear,180,2013-08-26 19:53:00
3:12 PM,91.8,71.4,51,29.91,10.0,South,10.4,-,N/A,,Clear,180,2013-08-26 20:12:00
3:33 PM,92.1,71.8,51,29.90,10.0,SSE,11.5,-,N/A,,Scattered Clouds,160,2013-08-26 20:33:00
3:53 PM,92.5,71.8,51,29.89,10.0,SSE,9.2,-,N/A,,Scattered Clouds,160,2013-08-26 20:53:00
4:12 PM,91.4,71.1,51,29.89,10.0,South,10.4,-,N/A,,Scattered Clouds,170,2013-08-26 21:12:00
4:33 PM,92.1,72.1,52,29.89,10.0,South,9.2,17.3,N/A,,Clear,170,2013-08-26 21:33:00
4:53 PM,90.9,71.2,52,29.87,10.0,South,9.2,17.3,N/A,,Clear,170,2013-08-26 21:53:00
5:12 PM,91.6,72.3,53,29.87,10.0,SSE,9.2,-,N/A,,Clear,160,2013-08-26 22:12:00
5:33 PM,91.0,73.4,56,29.85,10.0,South,10.4,-,N/A,,Clear,170,2013-08-26 22:33:00
5:53 PM,90.7,72.5,55,29.84,10.0,South,12.7,19.6,N/A,,Clear,170,2013-08-26 22:53:00
6:13 PM,91.4,72.7,54,29.84,10.0,South,10.4,16.1,N/A,,Clear,180,2013-08-26 23:13:00
6:33 PM,89.8,73.4,58,29.83,10.0,South,8.1,-,N/A,,Clear,170,2013-08-26 23:33:00
6:52 PM,89.2,73.2,59,29.83,10.0,South,6.9,-,N/A,,Clear,170,2013-08-26 23:52:00
7:13 PM,88.0,73.8,63,29.83,10.0,South,8.1,-,N/A,Thunderstorm,Clear,180,2013-08-27 00:13:00
7:33 PM,87.3,74.3,65,29.84,10.0,South,5.8,-,N/A,,Clear,180,2013-08-27 00:33:00
7:53 PM,86.2,74.1,67,29.84,10.0,South,6.9,-,N/A,,Clear,170,2013-08-27 00:53:00
8:13 PM,85.3,73.9,69,29.84,10.0,SSE,5.8,-,N/A,,Clear,160,2013-08-27 01:13:00
8:33 PM,84.4,73.9,71,29.85,10.0,Calm,Calm,-,N/A,,Clear,0,2013-08-27 01:33:00
8:53 PM,82.6,74.3,76,29.87,10.0,Calm,Calm,-,N/A,Thunderstorm,Clear,0,2013-08-27 01:53:00
9:12 PM,81.5,73.6,77,29.88,10.0,Calm,Calm,-,N/A,,Clear,0,2013-08-27 02:12:00
9:33 PM,81.5,73.6,77,29.89,10.0,Calm,Calm,-,N/A,,Clear,0,2013-08-27 02:33:00
9:53 PM,81.7,73.9,77,29.88,10.0,South,3.5,-,N/A,,Clear,180,2013-08-27 02:53:00
10:13 PM,81.5,74.3,79,29.87,10.0,Calm,Calm,-,N/A,,Clear,0,2013-08-27 03:13:00
10:32 PM,81.0,74.3,80,29.87,10.0,Calm,Calm,-,N/A,,Clear,0,2013-08-27 03:32:00
10:53 PM,80.6,74.7,82,29.87,10.0,SSE,5.8,-,N/A,,Clear,160,2013-08-27 03:53:00
11:13 PM,80.6,74.5,82,29.86,10.0,South,4.6,-,N/A,,Clear,180,2013-08-27 04:13:00
11:33 PM,80.2,74.3,82,29.85,10.0,South,4.6,-,N/A,,Clear,180,2013-08-27 04:33:00
11:53 PM,79.7,74.3,83,29.85,10.0,South,4.6,-,N/A,,Clear,170,2013-08-27 04:53:00